QPF
0.00 0.00 0.00 0.00 0.08 0.06 0.13 0.09 0.03 0.03 0.02 0.00 0.00 0.00 0.00 0.00 0.02 0.03 0.00 0.00 0.00 0.00 0.00 0.00 0.01 0.00 0.00 0.00 0.00 0.01 0.00 0.01 0.00 0.00 0.00 0.00 0.00 0.00 0.01 0.01 0.00 0.00 0.02 0.02 0.04 0.03 0.05 0.09 0.08
0.00 0.00 0.01 0.02 0.04 0.07 0.14 0.10 0.04 0.02 0.00 0.00 0.00 0.00 0.00 0.00 0.00 0.00 0.00 0.00 0.00 0.00 0.00 0.00 0.02 0.01 0.00 0.00 0.00 0.00 0.00 0.02 0.03 0.02 0.03 0.01 0.07 0.02 0.06 0.08 0.04 0.05 0.02 0.04 0.03 0.02 0.02 0.04 0.03
0.00 0.00 0.08 0.12 0.03 0.08 0.14 0.13 0.02 0.01 0.00 0.00 0.00 0.00 0.00 0.00 0.00 0.00 0.00 0.00 0.00 0.00 0.00 0.00 0.01 0.06 0.01 0.00 0.00 0.06 0.02 0.00 0.01 0.05 0.01 0.00 0.05 0.05 0.02 0.05 0.10 0.06 0.02 0.01 0.01 0.00 0.00 0.00 0.00
0.00 0.02 0.06 0.37 0.10 0.05 0.05 0.03 0.00 0.00 0.00 0.00 0.00 0.00 0.00 0.00 0.00 0.00 0.00 0.00 0.00 0.00 0.00 0.00 0.01 0.04 0.03 0.03 0.02 0.02 0.03 0.01 0.03 0.06 0.01 0.03 0.03 0.01 0.01 0.05 0.03 0.03 0.01 0.00 0.01 0.00 0.00 0.00 0.00
0.00 0.14 0.24 0.26 0.13 0.07 0.02 0.00 0.01 0.01 0.00 0.00 0.01 0.00 0.00 0.00 0.00 0.00 0.00 0.00 0.00 0.00 0.00 0.00 0.01 0.01 0.03 0.06 0.04 0.01 0.01 0.00 0.01 0.02 0.00 0.01 0.00 0.00 0.01 0.00 0.03 0.02 0.00 0.02 0.04 0.01 0.00 0.00 0.01
0.08 0.19 0.28 0.17 0.13 0.07 0.01 0.02 0.05 0.02 0.00 0.00 0.00 0.00 0.00 0.00 0.00 0.00 0.00 0.00 0.00 0.00 0.00 0.00 0.03 0.03 0.03 0.03 0.02 0.00 0.03 0.01 0.02 0.02 0.01 0.00 0.00 0.00 0.00 0.00 0.01 0.00 0.03 0.06 0.04 0.00 0.00 0.00 0.00
0.10 0.19 0.14 0.16 0.17 0.11 0.04 0.03 0.17 0.12 0.04 0.00 0.02 0.00 0.00 0.00 0.00 0.00 0.00 0.00 0.00 0.00 0.00 0.00 0.00 0.00 0.00 0.03 0.00 0.00 0.01 0.00 0.01 0.01 0.00 0.00 0.00 0.00 0.00 0.00 0.00 0.01 0.03 0.05 0.02 0.06 0.04 0.00 0.01
0.08 0.19 0.10 0.06 0.16 0.13 0.06 0.04 0.10 0.15 0.09 0.02 0.01 0.01 0.00 0.00 0.00 0.00 0.00 0.00 0.00 0.00 0.00 0.00 0.00 0.00 0.01 0.01 0.01 0.00 0.01 0.01 0.00 0.00 0.00 0.00 0.00 0.01 0.00 0.00 0.00 0.00 0.02 0.06 0.05 0.05 0.00 0.00 0.00
0.04 0.23 0.08 0.03 0.06 0.09 0.05 0.04 0.07 0.03 0.00 0.00 0.00 0.00 0.00 0.00 0.00 0.00 0.00 0.00 0.00 0.00 0.00 0.00 0.00 0.00 0.01 0.01 0.01 0.00 0.02 0.05 0.03 0.00 0.05 0.09 0.02 0.01 0.01 0.01 0.00 0.03 0.12 0.08 0.02 0.01 0.02 0.02 0.00
0.09 0.25 0.03 0.00 0.00 0.03 0.06 0.05 0.07 0.03 0.01 0.00 0.00 0.00 0.00 0.00 0.00 0.00 0.00 0.00 0.00 0.00 0.00 0.01 0.00 0.00 0.00 0.00 0.04 0.04 0.04 0.03 0.01 0.00 0.01 0.04 0.00 0.00 0.00 0.00 0.01 0.03 0.04 0.00 0.02 0.00 0.19 0.31 0.00
0.03 0.09 0.01 0.00 0.00 0.00 0.00 0.00 0.00 0.01 0.13 0.03 0.00 0.00 0.00 0.00 0.00 0.00 0.00 0.00 0.00 0.00 0.00 0.00 0.00 0.00 0.00 0.00 0.00 0.00 0.00 0.00 0.00 0.00 0.00 0.00 0.00 0.00 0.00 0.00 0.00 0.00 0.01 0.00 0.00 0.00 0.08 0.12 0.00
0.03 0.02 0.01 0.00 0.00 0.00 0.00 0.00 0.00 0.02 0.15 0.03 0.00 0.00 0.00 0.00 0.00 0.00 0.00 0.00 0.00 0.00 0.00 0.00 0.00 0.00 0.00 0.00 0.00 0.00 0.00 0.00 0.00 0.00 0.00 0.00 0.00 0.00 0.00 0.00 0.00 0.00 0.03 0.03 0.05 0.00 0.00 0.00 0.00
0.02 0.01 0.00 0.00 0.00 0.00 0.00 0.02 0.01 0.01 0.00 0.00 0.00 0.00 0.00 0.00 0.00 0.00 0.00 0.00 0.00 0.00 0.00 0.00 0.00 0.00 0.00 0.00 0.00 0.00 0.00 0.00 0.00 0.00 0.00 0.00 0.00 0.00 0.00 0.00 0.00 0.00 0.00 0.00 0.01 0.00 0.00 0.00 0.00
0.00 0.00 0.00 0.00 0.00 0.00 0.01 0.00 0.02 0.01 0.00 0.00 0.00 0.00 0.00 0.00 0.00 0.00 0.00 0.00 0.00 0.00 0.00 0.00 0.00 0.00 0.00 0.00 0.01 0.00 0.00 0.00 0.00 0.00 0.00 0.00 0.00 0.00 0.00 0.00 0.00 0.01 0.01 0.03 0.02 0.06 0.00 0.00 0.00
0.00 0.00 0.00 0.00 0.00 0.00 0.01 0.05 0.07 0.00 0.00 0.00 0.00 0.00 0.00 0.00 0.00 0.00 0.00 0.00 0.00 0.00 0.00 0.00 0.00 0.00 0.00 0.00 0.02 0.01 0.00 0.00 0.00 0.00 0.00 0.00 0.00 0.00 0.00 0.00 0.00 0.00 0.00 0.00 0.00 0.01 0.00 0.00 0.00
0.00 0.00 0.00 0.00 0.00 0.00 0.04 0.16 0.03 0.01 0.01 0.01 0.00 0.00 0.00 0.00 0.00 0.00 0.00 0.00 0.00 0.00 0.00 0.00 0.00 0.00 0.00 0.00 0.00 0.00 0.00 0.00 0.00 0.00 0.00 0.00 0.00 0.00 0.00 0.00 0.00 0.00 0.00 0.00 0.00 0.00 0.00 0.00 0.00
0.00 0.00 0.00 0.01 0.00 0.00 0.03 0.08 0.03 0.00 0.01 0.02 0.00 0.00 0.00 0.00 0.00 0.00 0.00 0.00 0.00 0.00 0.00 0.00 0.00 0.00 0.00 0.00 0.00 0.00 0.00 0.00 0.00 0.00 0.00 0.00 0.01 0.05 0.01 0.00 0.00 0.00 0.00 0.00 0.00 0.00 0.00 0.00 0.00
0.00 0.00 0.00 0.00 0.00 0.00 0.02 0.00 0.01 0.00 0.01 0.02 0.00 0.01 0.00 0.00 0.00 0.00 0.00 0.00 0.00 0.00 0.00 0.00 0.00 0.00 0.00 0.00 0.00 0.00 0.00 0.00 0.00 0.00 0.00 0.00 0.00 0.03 0.02 0.00 0.00 0.00 0.00 0.00 0.01 0.00 0.00 0.00 0.00
0.00 0.00 0.00 0.02 0.00 0.01 0.01 0.00 0.04 0.01 0.02 0.01 0.01 0.01 0.01 0.00 0.00 0.00 0.00 0.00 0.00 0.00 0.00 0.00 0.00 0.00 0.00 0.00 0.00 0.01 0.01 0.00 0.01 0.01 0.00 0.00 0.01 0.00 0.01 0.03 0.00 0.00 0.00 0.01 0.00 0.00 0.00 0.00 0.00
0.00 0.00 0.00 0.01 0.00 0.00 0.00 0.00 0.01 0.06 0.03 0.01 0.01 0.02 0.03 0.00 0.00 0.00 0.00 0.00 0.00 0.00 0.00 0.00 0.00 0.00 0.00 0.00 0.00 0.00 0.00 0.01 0.00 0.01 0.00 0.00 0.00 0.00 0.01 0.03 0.00 0.00 0.01 0.00 0.00 0.00 0.00 0.00 0.00
0.00 0.00 0.00 0.00 0.00 0.00 0.00 0.00 0.00 0.01 0.01 0.03 0.01 0.02 0.03 0.00 0.00 0.00 0.01 0.00 0.00 0.00 0.00 0.00 0.00 0.00 0.00 0.00 0.00 0.01 0.03 0.05 0.00 0.00 0.00 0.00 0.00 0.00 0.05 0.00 0.09 0.01 0.01 0.00 0.00 0.00 0.00 0.01 0.00
0.00 0.00 0.00 0.00 0.00 0.00 0.00 0.07 0.01 0.00 0.00 0.02 0.08 0.02 0.02 0.01 0.00 0.00 0.01 0.00 0.00 0.00 0.00 0.00 0.00 0.00 0.00 0.00 0.00 0.01 0.01 0.00 0.00 0.00 0.00 0.00 0.00 0.03 0.00 0.00 0.00 0.02 0.01 0.01 0.00 0.00 0.00 0.00 0.00
0.00 0.00 0.00 0.00 0.00 0.00 0.00 0.11 0.18 0.00 0.00 0.01 0.05 0.07 0.01 0.04 0.01 0.00 0.00 0.00 0.00 0.00 0.00 0.00 0.00 0.00 0.00 0.00 0.02 0.00 0.00 0.01 0.03 0.00 0.00 0.01 0.01 0.00 0.00 0.00 0.00 0.03 0.01 0.00 0.00 0.00 0.00 0.00 0.00
0.00 0.00 0.00 0.00 0.00 0.00 0.00 0.01 0.11 0.00 0.00 0.00 0.00 0.01 0.00 0.02 0.02 0.00 0.00 0.00 0.00 0.00 0.00 0.00 0.00 0.00 0.00 0.00 0.00 0.00 0.00 0.00 0.04 0.03 0.00 0.00 0.00 0.00 0.00 0.04 0.03 0.01 0.01 0.00 0.00 0.00 0.00 0.00 0.00
0.00 0.00 0.00 0.00 0.00 0.00 0.00 0.00 0.01 0.00 0.00 0.00 0.00 0.00 0.00 0.00 0.02 0.01 0.01 0.00 0.00 0.00 0.00 0.00 0.00 0.00 0.00 0.00 0.00 0.00 0.00 0.00 0.03 0.00 0.00 0.00 0.00 0.00 0.00 0.01 0.04 0.00 0.00 0.00 0.00 0.00 0.00 0.00 0.00
0.00 0.00 0.00 0.00 0.00 0.00 0.00 0.00 0.00 0.00 0.00 0.00 0.00 0.00 0.00 0.00 0.00 0.02 0.01 0.00 0.00 0.00 0.00 0.00 0.00 0.00 0.00 0.00 0.00 0.00 0.00 0.00 0.00 0.00 0.00 0.00 0.00 0.00 0.00 0.00 0.00 0.00 0.00 0.00 0.00 0.00 0.00 0.00 0.00
0.00 0.00 0.00 0.00 0.00 0.00 0.00 0.00 0.00 0.00 0.00 0.00 0.00 0.00 0.00 0.00 0.00 0.00 0.07 0.08 0.01 0.00 0.00 0.00 0.00 0.00 0.00 0.00 0.00 0.00 0.00 0.00 0.00 0.00 0.00 0.00 0.00 0.02 0.01 0.00 0.00 0.00 0.00 0.01 0.02 0.00 0.00 0.00 0.00
0.00 0.00 0.00 0.00 0.00 0.00 0.00 0.00 0.00 0.00 0.00 0.00 0.00 0.00 0.00 0.00 0.00 0.00 0.03 0.04 0.12 0.01 0.00 0.00 0.00 0.00 0.00 0.00 0.00 0.00 0.00 0.00 0.00 0.00 0.00 0.00 0.00 0.00 0.05 0.03 0.00 0.00 0.00 0.00 0.01 0.00 0.00 0.00 0.00
0.00 0.00 0.00 0.00 0.00 0.00 0.00 0.00 0.00 0.00 0.00 0.00 0.00 0.00 0.00 0.00 0.02 0.01 0.18 0.36 0.17 0.01 0.01 0.00 0.00 0.00 0.00 0.00 0.00 0.00 0.00 0.00 0.00 0.00 0.00 0.00 0.00 0.00 0.00 0.04 0.08 0.00 0.00 0.00 0.00 0.00 0.01 0.00 0.00
0.00 0.00 0.00 0.00 0.00 0.00 0.00 0.00 0.00 0.00 0.00 0.00 0.00 0.00 0.00 0.00 0.02 0.07 0.16 0.52 0.40 0.11 0.07 0.09 0.02 0.00 0.00 0.00 0.00 0.00 0.00 0.00 0.00 0.00 0.00 0.00 0.00 0.00 0.00 0.00 0.04 0.00 0.00 0.00 0.04 0.00 0.00 0.00 0.00
MSLP
1010.82 1010.15 1009.54 1009.74 1009.85 1008.69 1007.25 1006.60 1005.60 1005.12 1004.97 1004.21 1004.13 1003.97 1004.97 1006.25 1007.15 1008.51 1010.34 1011.13 1012.12 1013.39 1014.91 1015.50 1016.21 1016.47 1016.67 1016.85 1016.95 1017.02 1017.16 1017.28 1017.31 1017.39 1017.47 1017.59 1017.62 1017.62 1017.70 1017.70 1017.77 1017.88 1017.83 1017.85 1017.89 1017.98 1017.97 1018.09 1018.33
1009.00 1008.84 1009.27 1009.93 1008.85 1007.09 1006.66 1005.71 1005.47 1004.95 1004.19 1004.70 1004.73 1005.19 1005.78 1007.53 1008.18 1009.09 1010.15 1011.39 1012.03 1013.09 1014.06 1015.21 1016.43 1016.65 1016.94 1017.13 1017.17 1017.18 1017.29 1017.50 1017.54 1017.63 1017.71 1017.87 1017.89 1017.90 1018.09 1018.00 1018.15 1018.11 1018.17 1018.21 1018.14 1018.10 1018.23 1018.33 1018.35
1009.59 1008.88 1009.22 1009.00 1007.74 1006.33 1005.99 1005.41 1004.91 1004.48 1004.84 1004.97 1005.37 1006.06 1006.98 1008.63 1008.99 1009.40 1010.73 1011.48 1012.15 1012.93 1013.76 1015.79 1016.50 1016.85 1017.02 1017.28 1017.39 1017.39 1017.52 1017.75 1017.82 1017.89 1017.91 1018.03 1018.06 1018.06 1018.15 1018.33 1018.48 1018.39 1018.40 1018.39 1018.35 1018.48 1018.57 1018.59 1018.63
1008.65 1009.13 1008.35 1006.56 1006.54 1005.73 1005.28 1005.19 1004.67 1005.32 1005.85 1005.62 1006.49 1007.70 1009.08 1008.75 1009.35 1010.21 1011.09 1011.34 1012.03 1013.35 1014.15 1016.20 1016.64 1017.00 1017.20 1017.39 1017.57 1017.62 1017.78 1017.92 1018.12 1018.04 1018.19 1018.28 1018.30 1018.37 1018.43 1018.54 1018.67 1018.75 1018.62 1018.63 1018.69 1018.81 1018.97 1019.07 1018.95
1008.29 1008.34 1007.59 1006.64 1006.28 1005.68 1005.42 1005.25 1005.21 1005.63 1006.21 1006.60 1007.02 1008.19 1009.07 1009.50 1009.90 1010.83 1011.05 1011.35 1012.03 1013.77 1014.75 1015.93 1016.71 1017.04 1017.39 1017.59 1017.80 1017.95 1018.05 1018.16 1018.29 1018.33 1018.40 1018.49 1018.55 1018.63 1018.75 1018.76 1018.91 1018.84 1018.82 1018.85 1019.11 1019.27 1019.23 1019.26 1019.17
1008.36 1007.79 1006.73 1006.04 1006.38 1006.05 1006.23 1006.94 1006.53 1006.49 1007.42 1007.74 1007.97 1009.08 1009.85 1010.39 1010.65 1011.01 1010.95 1011.51 1011.99 1012.76 1014.16 1015.99 1017.02 1017.33 1017.57 1017.81 1017.93 1018.17 1018.35 1018.41 1018.59 1018.62 1018.69 1018.74 1018.80 1018.84 1018.86 1019.00 1018.98 1019.02 1019.01 1019.15 1019.26 1019.37 1019.48 1019.26 1019.57
1007.79 1007.24 1006.14 1005.87 1006.17 1006.77 1007.39 1008.21 1007.92 1007.49 1008.13 1008.15 1007.90 1008.43 1009.92 1010.37 1010.85 1011.03 1010.99 1011.62 1012.26 1012.57 1013.87 1015.34 1016.38 1017.32 1017.73 1017.93 1018.11 1018.33 1018.47 1018.66 1018.81 1018.88 1018.89 1018.97 1019.06 1019.16 1019.10 1019.17 1019.19 1019.27 1019.21 1019.26 1019.32 1019.37 1019.40 1019.57 1019.93
1007.17 1006.89 1005.63 1005.17 1005.88 1006.72 1008.05 1009.30 1009.65 1008.80 1009.07 1008.85 1007.67 1008.39 1009.39 1010.22 1010.83 1011.00 1011.12 1011.76 1012.65 1012.79 1013.50 1014.95 1015.41 1016.06 1016.65 1017.65 1018.37 1018.52 1018.70 1018.87 1019.01 1019.03 1018.97 1018.91 1019.06 1019.33 1019.36 1019.42 1019.51 1019.53 1019.51 1019.46 1019.35 1019.42 1019.69 1019.78 1019.88
1006.28 1006.39 1005.47 1005.15 1005.33 1006.83 1008.36 1009.50 1010.16 1009.96 1009.17 1008.49 1007.95 1008.17 1009.41 1010.53 1010.87 1011.01 1011.36 1012.69 1012.91 1013.51 1013.75 1014.43 1015.32 1016.81 1017.03 1017.48 1018.36 1018.68 1018.85 1018.92 1019.03 1019.11 1019.01 1018.77 1018.25 1018.68 1019.27 1019.73 1019.87 1019.83 1019.71 1019.57 1019.51 1020.09 1020.58 1020.63 1020.09
1005.75 1005.70 1005.17 1004.89 1004.95 1006.50 1008.05 1009.59 1010.09 1010.03 1009.04 1008.65 1008.17 1008.98 1010.09 1010.67 1010.86 1011.11 1011.47 1012.18 1013.14 1013.44 1013.71 1015.05 1015.78 1016.21 1016.99 1016.49 1018.17 1018.01 1018.70 1018.39 1018.14 1017.99 1018.57 1018.74 1018.44 1018.83 1019.25 1019.93 1020.13 1020.08 1019.85 1019.67 1019.86 1020.52 1020.19 1020.35 1019.51
1005.07 1005.04 1004.76 1004.52 1005.00 1005.90 1007.78 1009.49 1010.19 1009.89 1009.36 1008.78 1008.85 1009.38 1010.33 1010.76 1010.95 1011.26 1011.57 1012.07 1012.52 1013.29 1014.15 1014.77 1015.75 1016.01 1016.19 1016.59 1016.75 1017.17 1017.93 1017.66 1018.23 1018.76 1018.76 1018.53 1018.61 1018.97 1019.10 1019.59 1019.59 1019.58 1019.48 1018.73 1019.36 1020.08 1020.64 1020.02 1018.49
1005.02 1004.67 1004.44 1004.48 1004.70 1005.50 1006.84 1008.78 1009.56 1010.01 1009.77 1009.09 1009.41 1009.82 1010.37 1010.76 1010.82 1011.19 1011.54 1011.94 1012.71 1013.56 1014.53 1015.09 1015.45 1015.83 1016.18 1016.27 1016.19 1016.32 1016.91 1017.51 1018.27 1018.82 1018.69 1018.79 1018.43 1018.36 1018.34 1019.02 1018.82 1019.63 1019.47 1018.33 1018.73 1018.87 1019.34 1019.36 1018.75
1004.78 1003.79 1003.78 1004.02 1004.22 1005.62 1006.85 1007.96 1009.10 1009.85 1009.83 1009.89 1010.02 1010.10 1010.40 1010.65 1010.89 1011.37 1011.95 1012.13 1013.26 1013.89 1014.35 1015.16 1016.03 1016.55 1016.85 1016.89 1017.24 1017.23 1017.19 1017.14 1018.40 1018.43 1018.75 1018.80 1018.84 1018.93 1018.95 1019.01 1018.71 1018.63 1018.64 1018.46 1018.33 1018.55 1018.54 1018.44 1019.03
1003.48 1003.21 1003.23 1003.18 1003.60 1005.16 1006.66 1007.59 1008.43 1010.17 1010.33 1010.50 1010.18 1010.15 1010.40 1010.57 1010.89 1011.62 1012.11 1012.58 1013.75 1014.16 1014.67 1015.55 1016.43 1017.11 1017.15 1017.25 1017.83 1017.41 1017.40 1017.75 1017.65 1018.49 1018.94 1018.87 1018.95 1019.20 1019.24 1019.26 1019.18 1019.60 1019.65 1019.90 1019.23 1019.53 1018.55 1019.36 1018.94
1003.31 1002.96 1002.84 1002.79 1003.57 1004.59 1005.65 1007.37 1008.91 1010.48 1010.65 1010.65 1010.19 1010.23 1010.37 1010.68 1011.07 1011.83 1012.20 1013.05 1013.87 1014.44 1014.96 1015.93 1016.51 1017.07 1017.45 1017.93 1018.10 1017.93 1017.41 1017.92 1017.89 1018.78 1019.25 1019.32 1019.46 1019.40 1019.36 1019.33 1019.57 1019.19 1019.54 1019.45 1019.09 1019.50 1018.98 1018.66 1019.31
1002.95 1002.66 1002.09 1002.63 1003.40 1004.36 1005.37 1007.46 1009.70 1011.01 1011.01 1010.58 1010.21 1010.07 1010.50 1010.75 1011.27 1012.05 1012.54 1013.23 1013.84 1014.52 1015.27 1016.15 1016.10 1017.01 1017.47 1017.67 1018.08 1018.12 1017.82 1018.36 1018.47 1018.36 1019.19 1019.47 1019.75 1019.69 1019.66 1019.64 1019.50 1019.46 1019.46 1019.52 1019.48 1019.40 1019.27 1019.61 1019.85
1002.09 1000.89 1001.38 1002.00 1002.93 1003.75 1005.27 1007.37 1009.36 1010.63 1011.27 1010.69 1010.46 1010.17 1010.42 1010.75 1011.30 1012.13 1012.71 1013.33 1014.03 1014.77 1015.72 1016.19 1016.37 1017.07 1017.55 1018.00 1017.72 1018.29 1018.09 1018.72 1018.75 1018.90 1019.16 1019.45 1019.61 1019.82 1019.73 1019.97 1019.77 1019.86 1019.68 1019.48 1019.85 1019.55 1019.95 1019.66 1019.69
1000.49 1000.09 1000.29 1001.55 1002.42 1002.80 1004.55 1006.35 1009.03 1010.25 1011.08 1010.94 1010.57 1010.71 1010.59 1010.80 1011.19 1012.10 1012.65 1013.25 1014.03 1015.00 1015.96 1016.47 1016.68 1017.33 1017.73 1018.07 1018.15 1018.55 1018.27 1018.53 1018.82 1019.08 1019.53 1019.55 1019.76 1019.96 1019.74 1019.86 1019.77 1019.78 1019.64 1019.84 1020.04 1019.85 1019.97 1020.10 1019.83
999.61 999.61 1000.31 1001.87 1001.13 1002.19 1003.96 1005.66 1008.41 1010.17 1010.45 1010.63 1010.82 1010.98 1010.82 1010.85 1011.03 1011.96 1012.39 1013.18 1013.93 1014.89 1015.91 1016.53 1016.91 1017.70 1017.95 1018.15 1017.89 1018.59 1018.38 1018.76 1018.92 1019.13 1019.15 1019.48 1019.76 1019.86 1019.67 1019.97 1019.80 1020.57 1020.05 1020.22 1020.13 1020.20 1020.20 1019.66 1019.85
999.72 998.91 999.57 1001.01 1000.87 1001.73 1002.69 1004.55 1007.29 1008.67 1009.02 1009.93 1010.42 1010.80 1011.10 1010.67 1010.97 1011.83 1012.31 1012.96 1013.69 1014.69 1015.58 1016.41 1017.00 1017.79 1018.15 1017.97 1017.70 1017.42 1018.59 1018.68 1018.23 1018.63 1018.95 1019.37 1019.53 1019.89 1019.76 1019.86 1019.62 1020.06 1020.25 1020.23 1020.32 1020.24 1020.01 1019.77 1020.03
999.73 998.45 999.11 1000.05 1001.38 1001.53 1002.53 1004.41 1006.72 1008.75 1008.74 1009.47 1010.24 1010.59 1011.09 1010.57 1010.90 1011.95 1012.44 1012.82 1013.29 1014.35 1015.33 1016.18 1016.89 1017.57 1018.18 1017.89 1018.01 1017.99 1018.18 1018.58 1018.23 1018.67 1018.89 1019.12 1019.45 1019.81 1020.10 1019.98 1020.99 1019.90 1020.29 1020.17 1020.46 1020.32 1020.17 1020.62 1019.88
999.77 999.20 999.57 1000.17 1000.92 1000.41 1001.58 1002.84 1004.96 1007.25 1008.66 1009.19 1010.05 1010.66 1010.61 1010.74 1010.91 1011.56 1012.46 1012.64 1012.70 1013.90 1014.97 1016.00 1016.81 1017.37 1017.99 1018.02 1017.85 1018.19 1018.19 1017.96 1018.26 1018.30 1018.95 1018.75 1019.23 1019.65 1019.79 1020.05 1019.91 1019.99 1019.92 1020.19 1020.23 1020.08 1020.34 1020.23 1019.79
999.78 999.85 1000.10 1000.53 1000.61 1000.22 1001.11 1003.77 1006.09 1005.56 1007.50 1008.53 1009.73 1010.31 1010.28 1010.68 1010.41 1011.25 1011.77 1012.54 1012.43 1013.31 1014.37 1015.41 1016.47 1017.14 1017.49 1018.03 1018.27 1018.13 1017.99 1018.18 1018.60 1018.37 1018.78 1018.97 1019.49 1019.63 1019.57 1019.84 1020.07 1020.36 1019.98 1019.81 1020.18 1020.51 1020.63 1020.09 1019.86
1000.92 1000.27 1001.30 1001.15 1000.41 999.63 1000.04 1001.62 1005.61 1004.91 1006.15 1007.27 1008.79 1009.79 1009.65 1010.10 1010.66 1010.57 1011.27 1012.11 1012.18 1012.54 1013.63 1014.68 1016.03 1016.84 1017.37 1017.82 1018.17 1018.25 1017.97 1018.18 1018.29 1018.26 1018.40 1018.51 1018.90 1019.35 1019.57 1019.75 1020.07 1020.28 1019.99 1020.22 1020.42 1020.53 1020.79 1020.75 1020.43
1001.78 1001.31 1000.80 1000.57 999.97 999.09 1000.12 1001.51 1004.83 1005.63 1006.65 1006.95 1008.07 1008.25 1008.24 1009.01 1009.91 1010.45 1011.19 1011.30 1011.77 1011.81 1012.78 1013.92 1015.28 1016.33 1017.00 1017.41 1017.75 1018.20 1018.40 1018.25 1018.25 1018.49 1018.34 1018.76 1018.29 1018.32 1019.11 1019.65 1020.01 1019.97 1020.35 1020.20 1020.30 1020.71 1020.72 1020.80 1020.72
1001.67 1000.94 999.47 998.97 998.75 998.97 999.46 1001.84 1005.33 1006.98 1007.95 1008.53 1009.28 1008.82 1008.63 1007.65 1008.52 1009.96 1009.98 1010.87 1011.13 1011.51 1012.21 1013.10 1014.37 1015.56 1016.45 1016.97 1017.31 1017.72 1018.17 1018.29 1018.22 1018.55 1018.14 1017.93 1017.95 1017.87 1018.53 1019.17 1019.62 1019.75 1020.04 1020.29 1020.49 1020.53 1020.55 1020.34 1020.76
1001.48 1000.51 999.11 998.27 998.08 998.51 1000.54 1004.61 1006.33 1007.67 1008.81 1010.85 1011.83 1011.13 1009.33 1007.94 1007.67 1008.87 1009.54 1010.56 1010.80 1010.76 1011.44 1012.45 1013.51 1014.70 1015.56 1016.14 1016.82 1017.31 1017.67 1017.94 1017.51 1017.71 1018.17 1018.21 1017.99 1018.84 1018.33 1018.46 1019.25 1019.49 1019.58 1019.87 1020.23 1020.38 1020.31 1020.45 1020.61
1002.35 1001.29 999.70 999.09 997.69 998.01 1000.29 1003.43 1004.66 1007.84 1009.95 1012.16 1012.83 1012.42 1011.34 1009.61 1008.57 1008.20 1008.94 1009.97 1011.01 1009.67 1010.61 1011.77 1012.97 1013.90 1014.73 1015.40 1016.00 1016.59 1017.07 1017.52 1017.74 1017.74 1017.99 1017.75 1017.71 1017.76 1018.75 1018.34 1018.85 1019.37 1019.48 1019.80 1020.15 1019.83 1019.82 1020.29 1020.33
1002.47 1001.63 1000.15 999.35 998.22 997.77 1000.71 1003.27 1005.63 1008.75 1011.29 1012.95 1013.85 1013.99 1013.38 1012.32 1011.70 1011.25 1012.16 1012.56 1012.24 1010.44 1010.57 1010.84 1012.06 1013.20 1014.02 1014.65 1015.14 1015.73 1016.19 1016.69 1017.31 1017.56 1017.77 1017.99 1018.07 1018.11 1018.06 1018.43 1018.78 1019.10 1019.32 1019.50 1019.89 1019.80 1019.57 1020.09 1020.35
1002.88 1001.85 1001.49 1000.17 999.59 999.25 1000.71 1005.42 1007.73 1009.49 1011.23 1013.28 1014.50 1014.95 1014.55 1013.94 1013.66 1013.60 1013.19 1012.65 1009.27 1012.40 1013.27 1012.71 1011.45 1012.27 1013.02 1013.79 1014.52 1015.09 1015.65 1016.06 1016.46 1017.07 1017.35 1017.63 1017.90 1017.84 1018.09 1018.47 1018.81 1019.10 1019.00 1019.08 1019.50 1019.74 1019.37 1019.60 1019.98
Thickness
5795 5799 5803 5788 5762 5768 5769 5777 5804 5797 5797 5823 5828 5820 5807 5800 5781 5761 5795 5794 5787 5775 5762 5757 5753 5752 5750 5749 5749 5748 5748 5746 5746 5745 5744 5743 5743 5743 5742 5742 5740 5739 5740 5740 5740 5740 5740 5740 5739
5810 5810 5799 5771 5765 5767 5769 5801 5790 5804 5821 5825 5822 5815 5804 5780 5797 5794 5790 5792 5788 5779 5771 5762 5753 5751 5749 5748 5749 5749 5748 5746 5745 5744 5743 5741 5742 5742 5740 5740 5739 5739 5738 5738 5739 5739 5739 5739 5740
5807 5810 5776 5764 5778 5771 5774 5800 5807 5820 5823 5818 5810 5815 5802 5778 5795 5797 5797 5794 5789 5782 5775 5759 5755 5752 5751 5750 5749 5750 5748 5745 5744 5743 5742 5741 5742 5741 5741 5738 5737 5737 5736 5737 5737 5736 5736 5737 5738
5807 5795 5792 5760 5781 5799 5802 5809 5822 5811 5813 5821 5810 5785 5793 5808 5798 5799 5799 5798 5792 5781 5774 5758 5755 5753 5753 5751 5750 5749 5746 5744 5743 5744 5742 5741 5741 5740 5739 5738 5737 5735 5735 5735 5734 5732 5732 5733 5736
5810 5795 5779 5783 5789 5805 5815 5822 5824 5809 5808 5807 5807 5784 5784 5800 5808 5801 5800 5799 5793 5780 5771 5762 5757 5755 5753 5752 5750 5748 5746 5745 5744 5743 5742 5741 5741 5740 5738 5739 5737 5736 5735 5733 5730 5727 5727 5730 5736
5783 5796 5783 5782 5787 5804 5810 5803 5812 5809 5803 5800 5796 5781 5781 5800 5798 5799 5804 5799 5797 5790 5778 5764 5757 5755 5753 5751 5750 5747 5746 5745 5743 5743 5742 5742 5741 5740 5740 5739 5738 5737 5736 5732 5728 5726 5726 5732 5735
5784 5786 5788 5794 5790 5788 5794 5794 5792 5802 5795 5794 5808 5785 5787 5794 5800 5803 5805 5801 5797 5795 5784 5772 5764 5758 5755 5753 5752 5749 5747 5745 5744 5743 5743 5742 5742 5740 5740 5740 5739 5738 5736 5733 5731 5731 5734 5736 5736
5800 5795 5795 5807 5790 5783 5793 5781 5783 5793 5786 5806 5818 5785 5780 5797 5802 5805 5805 5800 5795 5796 5789 5779 5774 5769 5765 5757 5752 5749 5747 5746 5745 5745 5745 5746 5745 5741 5741 5740 5739 5739 5737 5734 5738 5738 5739 5740 5740
5820 5784 5785 5796 5798 5790 5792 5775 5778 5789 5794 5805 5814 5809 5805 5804 5804 5801 5798 5789 5791 5790 5790 5785 5777 5767 5765 5762 5754 5752 5750 5749 5748 5747 5749 5750 5753 5748 5744 5740 5738 5738 5739 5739 5742 5737 5732 5732 5742
5804 5786 5794 5816 5818 5799 5794 5777 5775 5780 5794 5797 5806 5809 5804 5803 5800 5794 5792 5787 5784 5787 5791 5783 5777 5773 5768 5772 5759 5760 5755 5756 5757 5758 5754 5752 5754 5750 5746 5741 5739 5740 5741 5743 5741 5734 5732 5737 5743
5809 5791 5812 5820 5823 5817 5795 5779 5781 5776 5778 5797 5793 5798 5797 5798 5798 5794 5795 5793 5792 5792 5789 5788 5780 5778 5777 5774 5774 5770 5765 5764 5758 5754 5755 5756 5755 5752 5750 5746 5746 5747 5748 5753 5750 5742 5739 5746 5754
5795 5813 5818 5820 5825 5817 5802 5792 5779 5779 5779 5804 5802 5802 5798 5795 5797 5796 5795 5797 5794 5790 5786 5786 5783 5782 5779 5778 5780 5778 5773 5767 5761 5755 5756 5756 5758 5760 5760 5756 5756 5752 5756 5763 5766 5756 5750 5751 5760
5797 5816 5825 5827 5828 5815 5810 5794 5782 5779 5791 5800 5799 5799 5796 5796 5799 5799 5798 5802 5794 5788 5789 5787 5781 5778 5776 5776 5775 5773 5773 5773 5762 5761 5758 5758 5758 5758 5758 5758 5760 5762 5763 5767 5769 5766 5766 5767 5762
5820 5824 5825 5832 5830 5819 5799 5796 5794 5778 5790 5789 5795 5796 5797 5798 5799 5795 5794 5794 5788 5789 5787 5786 5780 5775 5775 5776 5771 5774 5774 5771 5771 5763 5759 5759 5759 5759 5758 5759 5760 5760 5760 5761 5767 5763 5769 5764 5765
5820 5810 5822 5827 5825 5815 5817 5786 5778 5778 5786 5782 5791 5796 5798 5798 5800 5792 5795 5791 5789 5788 5788 5782 5780 5776 5775 5772 5771 5772 5774 5771 5771 5763 5759 5759 5757 5759 5759 5760 5760 5764 5762 5763 5767 5766 5768 5771 5766
5805 5812 5795 5820 5823 5819 5812 5767 5775 5771 5775 5781 5791 5796 5794 5797 5798 5795 5796 5794 5793 5789 5785 5782 5786 5779 5776 5775 5773 5773 5773 5769 5769 5768 5761 5759 5758 5759 5760 5761 5763 5763 5766 5767 5767 5768 5769 5766 5765
5803 5800 5797 5807 5826 5819 5801 5775 5782 5782 5774 5778 5785 5793 5794 5796 5797 5795 5795 5794 5791 5789 5783 5781 5784 5779 5777 5773 5777 5773 5773 5769 5769 5768 5765 5761 5761 5760 5763 5762 5763 5763 5767 5769 5769 5769 5766 5769 5770
5795 5808 5815 5799 5815 5825 5795 5792 5781 5780 5771 5770 5783 5785 5791 5792 5794 5795 5795 5796 5792 5788 5783 5780 5781 5778 5776 5773 5775 5773 5774 5772 5769 5769 5765 5763 5762 5761 5764 5765 5765 5766 5770 5770 5769 5770 5771 5769 5772
5828 5824 5807 5794 5830 5819 5803 5796 5779 5769 5775 5775 5776 5780 5785 5790 5799 5797 5798 5796 5792 5787 5781 5779 5777 5774 5773 5773 5775 5770 5773 5773 5772 5771 5769 5766 5765 5763 5766 5767 5768 5765 5771 5769 5772 5772 5770 5776 5778
5814 5827 5814 5808 5828 5822 5814 5798 5790 5786 5789 5783 5780 5779 5781 5792 5795 5793 5795 5794 5792 5786 5783 5780 5777 5773 5773 5777 5780 5783 5774 5776 5780 5776 5774 5770 5768 5766 5767 5768 5771 5771 5773 5773 5774 5774 5774 5778 5779
5806 5825 5814 5807 5810 5822 5812 5786 5783 5777 5791 5789 5786 5787 5783 5790 5790 5786 5789 5791 5794 5787 5783 5780 5778 5776 5774 5780 5778 5778 5781 5781 5781 5778 5778 5775 5772 5769 5767 5769 5766 5773 5772 5776 5774 5776 5776 5765 5781
5788 5829 5818 5812 5797 5792 5824 5780 5791 5784 5774 5782 5779 5778 5784 5788 5792 5790 5786 5789 5795 5790 5788 5783 5779 5777 5776 5779 5780 5777 5777 5779 5780 5783 5779 5781 5776 5773 5771 5770 5772 5773 5776 5777 5777 5779 5779 5780 5779
5799 5820 5809 5804 5801 5809 5807 5760 5736 5797 5773 5777 5775 5777 5786 5788 5797 5791 5791 5789 5797 5796 5791 5787 5781 5779 5779 5778 5778 5780 5780 5782 5781 5783 5781 5782 5777 5777 5776 5774 5772 5771 5776 5779 5779 5777 5777 5785 5785
5798 5801 5790 5795 5802 5791 5818 5806 5729 5779 5783 5789 5785 5780 5791 5791 5790 5798 5798 5794 5797 5802 5796 5791 5782 5779 5779 5778 5778 5780 5781 5781 5780 5783 5783 5785 5785 5781 5779 5778 5775 5773 5776 5777 5777 5778 5778 5779 5783
5771 5770 5752 5751 5765 5782 5824 5806 5751 5778 5789 5794 5787 5793 5804 5802 5795 5797 5791 5796 5797 5801 5799 5794 5786 5779 5780 5780 5780 5779 5778 5781 5782 5781 5785 5783 5788 5790 5784 5780 5778 5778 5775 5777 5778 5777 5778 5779 5781
5763 5774 5770 5742 5765 5790 5831 5781 5754 5776 5782 5785 5781 5794 5800 5812 5809 5796 5804 5800 5801 5802 5801 5798 5790 5782 5781 5781 5781 5782 5780 5780 5783 5782 5788 5792 5792 5795 5790 5785 5782 5782 5779 5778 5777 5777 5779 5782 5781
5762 5759 5813 5802 5818 5806 5792 5754 5762 5769 5768 5757 5751 5766 5789 5809 5816 5807 5807 5797 5802 5806 5805 5800 5794 5787 5785 5784 5783 5782 5782 5782 5788 5790 5788 5789 5794 5790 5791 5792 5786 5785 5784 5782 5780 5780 5782 5782 5783
5753 5785 5772 5788 5772 5778 5776 5752 5757 5751 5750 5738 5739 5751 5770 5793 5808 5816 5810 5804 5786 5808 5808 5804 5798 5791 5788 5787 5787 5786 5785 5784 5785 5788 5787 5791 5793 5795 5791 5795 5791 5786 5785 5784 5782 5786 5787 5784 5786
5747 5751 5776 5797 5803 5794 5753 5750 5763 5743 5737 5729 5731 5737 5748 5764 5777 5786 5775 5771 5781 5805 5805 5807 5802 5795 5790 5791 5791 5790 5789 5789 5787 5787 5787 5788 5789 5790 5795 5793 5791 5790 5789 5787 5786 5788 5791 5786 5785
5744 5755 5763 5758 5765 5792 5780 5719 5746 5746 5742 5730 5725 5728 5740 5750 5757 5758 5762 5749 5762 5770 5776 5775 5801 5801 5797 5794 5792 5791 5791 5791 5791 5788 5789 5790 5789 5791 5791 5792 5791 5790 5792 5793 5790 5788 5792 5790 5786